This demonstration page uses our WeatherBlox Daily Observations layout. Learn more.

Left ArrowRight Arrow

41.12389, -100.76542

Hourly Observations for July 17, 2016

Temp ( °F °C ) Dew Point ( °F °C ) Humidity (%) Winds ( mph kmh ) Pressure ( in mb ) Visibility ( mi km ) Precip ( " mm )
12:53 am 00:53 Clear 76 24.4 64 17.8 67 67 S 15 24 29.75 1007 10 16 0.00 0.00
1:53 am 01:53 Clear 74 23.3 64 17.8 71 71 SE 8 13 29.75 1008 10 16 0.00 0.00
2:53 am 02:53 Clear 73 22.8 65 18.3 76 76 S 13 20 29.74 1007 10 16 0.00 0.00
3:53 am 03:53 Clear 73 22.8 66 18.9 79 79 S 7 11 29.75 1007 10 16 0.00 0.00
4:53 am 04:53 Clear 73 22.8 66 18.9 79 79 NW 8 13 29.77 1008 10 16 0.00 0.00
5:53 am 05:53 Mostly Clear 71 21.7 66 18.9 84 84 N 6 9 29.81 1010 10 16 0.00 0.00
6:08 am 06:08 Mostly Cloudy 70 21 66 19 88 88 N 5 7 29.80 1009 10 16 0.00 0.00
6:53 am 06:53 Cloudy 69 20.6 65 18.3 87 87 NE 8 13 29.82 1010 10 16 0.00 0.00
7:25 am 07:25 Partly Cloudy 70 21 66 19 88 88 ESE 6 9 29.80 1009 10 16 0.00 0.00
7:53 am 07:53 Sunny 70 21.1 66 18.9 87 87 ENE 5 7 29.84 1011 10 16 0.00 0.00
8:35 am 08:35 Mostly Cloudy 73 23 66 19 78 78 NE 7 11 29.80 1009 10 16 0.00 0.00
8:53 am 08:53 Cloudy 75 23.9 68 20 79 79 E 5 7 29.85 1011 10 16 0.00 0.00
9:53 am 09:53 Cloudy 76 24.4 67 19.4 74 74 ENE 5 7 29.87 1012 10 16 0.00 0.00
10:39 am 10:39 Cloudy 74 23.3 67 19.4 79 79 NNE 13 20 29.85 1011 10 16 0.00 0.00
10:53 am 10:53 Cloudy 74 23.3 67 19.4 79 79 NNE 13 20 29.90 1013 10 16 0.00 0.00
11:53 am 11:53 Sunny 76 24.4 67 19.4 74 74 N 10 17 29.92 1013 10 16 0.00 0.00
12:50 pm 12:50 Mostly Cloudy 73 23 64 18 74 74 NE 14 22 29.88 1012 10 16 0.00 0.00
12:53 pm 12:53 Mostly Cloudy 73 22.8 65 18.3 76 76 NNE 13 20 29.94 1014 10 16 0.00 0.03
1:29 pm 13:29 Mostly Cloudy 79 26 64 18 61 61 NE 18 30 29.85 1011 10 16 0.00 0.00
1:53 pm 13:53 Partly Cloudy 80 26.7 66 18.9 62 62 NE 13 20 29.94 1014 10 16 0.00 0.00
2:53 pm 14:53 Sunny 83 28.3 67 19.4 59 59 E 17 28 29.93 1014 10 16 0.00 0.00
3:53 pm 15:53 Cloudy 80 26.7 68 20 67 67 ENE 13 20 29.96 1015 10 16 0.00 0.00
4:53 pm 16:53 Mostly Sunny 83 28.3 68 20 61 61 E 10 17 29.95 1014 10 16 0.00 0.00
5:53 pm 17:53 Partly Cloudy 83 28.3 69 20.6 63 63 ESE 13 20 29.93 1014 10 16 0.00 0.00
6:53 pm 18:53 Mostly Sunny 82 27.8 70 21.1 67 67 ESE 12 19 29.94 1014 10 16 0.00 0.00
7:53 pm 19:53 Mostly Sunny 78 25.6 70 21.1 76 76 ESE 6 9 29.97 1015 10 16 0.00 0.00
8:53 pm 20:53 Sunny 75 23.9 71 21.7 88 88 E 3 6 29.99 1016 10 16 0.00 0.00
9:50 pm 21:50 Mostly Cloudy 75 24 70 21 83 83 Calm 29.94 1014 10 16 0.00 0.00
9:53 pm 21:53 Mostly Cloudy 75 23.9 70 21.1 84 84 Calm 30.02 1017 10 16 0.00 0.00
10:12 pm 22:12 Partly Cloudy 73 23 70 21 89 89 E 7 11 29.97 1015 10 16 0.00 0.00
10:53 pm 22:53 Clear 73 22.8 70 21.1 90 90 ENE 6 9 30.02 1017 10 16 0.00 0.00
11:53 pm 23:53 Clear 73 22.8 69 20.6 87 87 ENE 7 11 30.03 1017 10 16 0.00 0.00

Powered by AerisWeather